Showing default

CORVUS BC4, 43767

Orbit data source: Space-Track

CORVUS BC4, 43767 is a payload satellite owned by Astro Digital (US) in SSO that was launched on Mon, 03 Dec 2018 UTC via an FALCON 9 launch vehicle from the Air Force Western Test Range (AFWTR). Payload-class satellites include a variety of spacecraft equipped with specific instruments for various scientific and technological missions. These include communications satellites like Starlink; space stations such as the ISS; scientific satellites like the Hubble; Earth observation satellites from companies like Planet Labs, Umbra, and HawkEye 360; GPS; miniature CubeSats for education and research; and military/defense satellites.

Loading next visibility...
Identifier
43767, 2018-099K
Orbit
SSO
Country
Flag of USUS
Related business
Manufacturer
Astro Digital
Mission
Operational Commercial Imaging
Bus & Motor
CUBESAT 6U, Unknown motor
Mass
10 kg wet, 10 kg dry
Launch date (UTC)
2018-12-03 (8 years ago)
Launch vehicle
FALCON 9
Launch site
Air Force Western Test Range (AFWTR)
Object type
Payload
Rocket body
Debris
Shape & HBR
Box + 2 Pan, 0.2 m
Radar Cross Section
0.092 m², Medium (>0.1 m² and < 1m²)

Expand to show TLE details & history
Last TLE update: 2 days ago

TLE from 2 days ago
0 CORVUS BC4
1 43767U 18099K   26234.33587300  .00004040  00000-0  23257-3 0  9990
2 43767  97.4025 275.3823 0009632 126.2199 233.9924 15.12944380422407
Epoch: 2026-08-22T08:03Z
TLE epoch observation values (Epoch: 2026-08-22T08:03:39.427Z)
Latitude
-0.00002°
Longitude
-176.17973°
Altitude
534.222 km
Speed
7.593 km/s
True Right ascension
18h 21m 31s
True Declination
0° 00' 00"
Sunlit
Object was in full shadow at epoch
Visualization orbit readout
Latitude
Unknown
Longitude
Unknown
Altitude
Unknown
Speed
Unknown
Apparent Right ascension
Unknown
Apparent Declination
Unknown
Sunlit
N/A
Visualization observer readout
Local Sidereal Time
20:02:24
Azimuth
Unknown
Elevation
Unknown
Doppler factor
Unknown
Orbital elements
Apogee altitude
530.85 km
Perigee altitude
517.553 km
Semi-major axis
6,902.338 km
Eccentricity
0.00096
Inclination
97.4025°
RAAN
275.3823°
Arg. of periapsis
126.2199°
True anomaly
233.90318°
Mean anomaly
233.9924°
Eccentric anomaly
233.94778°
Mean motion
3.78485 °/min
Orbital period
95.12 mins
BSTAR
0.00023257
Loading maneuver chart data...
Computing Atmospheric mass density...
Loading historical data...
Loading historical data...
Loading historical data...
Loading historical data...
Loading historical data...
Loading historical data...
Loading historical data...

Documentation

Showing up to 5 results
|